User: anonymous   Login
Location: Newark
(48.2308°N, 120.8549°W)
Time: 17:33:23
(UTC+00:00)
Language:

Transit 2A Rocket - Orbit

View from above orbital plane
View from above orbital plane
View from above satellite
View from above satellite

Ground track
Ground track

The orbit data is extracted from the following two-line orbital elements,

1 00047U 60007C   21297.69144435  .00000065  00000-0  39265-4 0  9991
2 00047  66.6647 273.3968 0233897 300.6879  57.1360 14.42183656205943
Epoch (UTC): 24 October 2021 16:35:40
Eccentricity: 0.0233897
inclination: 66.6647°
perigee height: 584 km
apogee height: 918 km
right ascension of ascending node: 273.3968°
argument of perigee: 300.6879°
revolutions per day: 14.42183656
mean anomaly at epoch: 57.1360°
orbit number at epoch: 20594

The dashed part of the orbit path shows where the satellite is in the earth's shadow,  

DLR